Location: Unspecified
(0.0000°N, 0.0000°E)
Time: 02:39:22
(UTC+00:00)

Tiros 1 - Pass Details

Date: 22 April 2026
Orbit: 618 x 648 km, 48.4° (Epoch: 15 May)

Event Time Altitude Azimuth Distance (km) Brightness Sun altitude
Exits shadow 04:20:50 13° 172° (S) 1,817 9.4 -23.9°
Maximum altitude 04:23:36 20° 130° (SE) 1,418 9.3 -23.2°
Drops below altitude 10° 04:26:58 10° 81° (E) 1,974 10.8 -22.4°
Sets 04:29:45 0° 65° (ENE) 2,874 11.9 -21.7°
